Location: Ellingshausen
(50.5460°N, 10.4723°E)
Time: 21:23:10
(UTC+00:00)

Cosmos 1484 Rocket - Pass Details

Date: 18 January 2026
Orbit: 439 x 466 km, 97.6° (Epoch: 16 February)

Event Time Altitude Azimuth Distance (km) Brightness Sun altitude
Rises 05:03:39 0° 17° (NNE) 2,459 6.3 -19.6°
Reaches altitude 10° 05:05:43 10° 23° (NNE) 1,587 5.3 -19.3°
Maximum altitude 05:09:02 51° 100° (E) 578 3.3 -18.7°
Drops below altitude 10° 05:12:22 10° 178° (S) 1,590 5.3 -18.2°
Sets 05:14:27 0° 184° (S) 2,464 6.2 -17.9°
